Погода в Блу-Бэй

Маврикий     20°26′33″S   57°43′04″E
темп.,
°C
ветер,
м/с
пор.,
м/с
влажн.,
%
обл.,
%
осадки,
мм/ч
давл.,
гПа
погр.,
м
11 мая, вт
вт1101:00+25всв567099 0.1 1015926
04:00+25св67693 0.6 10151071
07:00+25всв7871100 0.3 10161010
10:00+26всв666611 0.4 10171150
13:00+26всв55640 0.0 10161048
16:00+26в44649 0.0 1016975
19:00+26вюв44674 0.0 1017862
22:00+26в45660 0.0 1018911
12 мая, ср
ср1201:00+25в56703 0.0 1017969
04:00+25в55660 0.0 1017875
07:00+26вюв67733 0.0 10181036
10:00+26в677226 0.1 10191043
13:00+26в667415 0.2 1017923
16:00+26в777619 0.7 1016882
19:00+26в887274 0.5 10181081
22:00+26в7973100 0.6 10191145
13 мая, чт
чт1301:00+26в99716 0.2 10181087
04:00+26вюв89719 0.2 10171116
07:00+26в10107173 0.3 10181184
10:00+26вюв89666 0.3 10191340
13:00+26вюв77689 0.1 10181128
16:00+26юв887319 0.1 10171067
19:00+25юв897731 0.4 1018944
22:00+25вюв787717 1.9 1019870
14 мая, пт
пт1401:00+25в897610 1.3 1018875
04:00+26вюв91073100 2.4 10171173
07:00+26вюв91067100 0.1 10181335
10:00+26вюв897114 0.1 10191234
13:00+26вюв997310 0.4 10171100
16:00+26вюв10107416 1.1 10171145
19:00+26вюв910673 0.3 10181252
22:00+26вюв9116524 0.3 10191419
15 мая, сб
сб1501:00+25вюв89706 0.1 10181162
04:00+25вюв911684 1.0 10171205
07:00+25вюв911697 0.0 10181240
10:00+26вюв10117220 0.3 10191294
13:00+26вюв10106517 0.5 10181545
16:00+25вюв910643 0.5 10171523
19:00+25вюв911641 0.0 10181440
22:00+25вюв9107098 0.1 10181268